Location: Gombori
(14.9797°N, 2.9419°W)
Time: 10:02:41
(UTC+00:00)

CZ-4 R/B - Pass Details

Date: 29 July 2021
Orbit: 529 x 598 km, 97.8° (Epoch: 23 September)

Event Time Altitude Azimuth Distance (km) Brightness Sun altitude
Rises 19:42:24 0° 186° (S) 2,784 4.7 -14.3°
Reaches altitude 10° 19:44:42 10° 196° (SSW) 1,897 4.0 -14.8°
Maximum altitude 19:48:24 32° 260° (W) 1,009 3.2 -15.6°
Drops below altitude 10° 19:52:10 10° 325° (NW) 1,923 5.0 -16.4°
Sets 19:54:31 0° 335° (NNW) 2,830 5.8 -16.9°
